Weather in Sadiqabad

Pakistan     28°17′37″N   70°05′41″E
temp.,
°C
wind,
m/s
gust,
m/s
humid.,
%
clouds,
%
prec.,
mm/h
press.,
hPa
HPBL,
m
4 march, thu
thu423:00+25wnw45130 0.0 101046
02:00+21nnw34170 0.0 100929
05:00+21nne57180 0.0 100992
08:00+22ene24180 0.0 1012119
11:00+33nne33100 0.0 10121269
14:00+36nw6770 0.0 10093454
17:00+35wnw6680 0.0 10083016
20:00+26wnw35140 0.0 101026
5 march, fri
fri523:00+24nw45150 0.0 101130
02:00+20nne56150 0.0 101183
05:00+19ne34190 0.0 101135
08:00+24ne12140 0.0 101355
11:00+33ene2370 0.0 1014973
14:00+36nw2460 0.0 10103087
17:00+36wnw5570 0.0 10083060
20:00+24nw23140 0.0 100924
6 march, sat
sat623:00+21wsw22160 0.0 101024
02:00+21wnw23140 0.0 100924
05:00+18sw12170 0.0 100824
08:00+26ssw34120 0.0 1010106
11:00+35s5680 0.0 1010949
14:00+41sw81190 0.0 10064596
17:00+39wnw68830 0.0 10024507
20:00+32wsw571337 0.0 1003101
7 march, sun
sun723:00+30sw8162555 0.0 1004394
02:00+24ne451996 0.0 100484
05:00+22ne5121886 0.0 1003281
08:00+23ne612223 0.0 1006428
11:00+31nne67132 0.0 1007971
14:00+35nw3590 0.0 10042425
17:00+35wnw8750 0.0 10033395
20:00+26n4580 0.0 100532
8 march, mon
mon823:00+24n4580 0.0 100645
02:00+20n34170 0.0 100729
05:00+18ne58310 0.0 1007111
08:00+20ne710320 0.0 1011276
11:00+30ne89190 0.0 10121033
14:00+34ene53110 0.0 10092463
17:00+34ese3290 0.0 10083076
20:00+25ne34170 0.0 100924